contact:dominique.lefevre@mio.osupytheas.fr, maurice.libes@osupytheas.fr, didier.mallarino@osupytheas.fr
Project:EMSO http://www.emso-fr.org/EMSO-France
Depth: 2436.0 m
Title:EMSO Ligure Ouest : Data MII capteur MICROCAT
DateTime_Computer,Latitude,Longitude,Temperature,Conductivity,Pressure,DateTime_Instrument
DateTime_Computer,Latitude,Longitude,degC,S m-1,dbar,DateTime_Instrument
2021-10-25T00:02:44Z,42.805,6.029,13.2993,4.60026,2470.39,2021-10-25T02:04:08Z
2021-10-25T00:05:47Z,42.805,6.029,13.2998,4.60023,2470.366,2021-10-25T02:07:11Z
2021-10-25T00:08:50Z,42.805,6.029,13.2997,4.60017,2470.39,2021-10-25T02:10:14Z
2021-10-25T00:11:53Z,42.805,6.029,13.2991,4.60017,2470.39,2021-10-25T02:13:17Z
2021-10-25T00:14:56Z,42.805,6.029,13.2997,4.60022,2470.39,2021-10-25T02:16:20Z
2021-10-25T00:17:59Z,42.805,6.029,13.2998,4.60024,2470.39,2021-10-25T02:19:24Z
2021-10-25T00:21:02Z,42.805,6.029,13.2996,4.60028,2470.366,2021-10-25T02:22:27Z
2021-10-25T00:24:06Z,42.805,6.029,13.2995,4.60021,2470.366,2021-10-25T02:25:30Z
2021-10-25T00:27:09Z,42.805,6.029,13.2996,4.60020,2470.38,2021-10-25T02:28:33Z
2021-10-25T00:30:12Z,42.805,6.029,13.2993,4.60023,2470.39,2021-10-25T02:31:36Z
2021-10-25T00:33:15Z,42.805,6.029,13.2993,4.60016,2470.366,2021-10-25T02:34:39Z
2021-10-25T00:36:18Z,42.805,6.029,13.2993,4.60023,2470.366,2021-10-25T02:37:42Z
2021-10-25T00:39:21Z,42.805,6.029,13.2996,4.60031,2470.366,2021-10-25T02:40:45Z
2021-10-25T00:42:24Z,42.805,6.029,13.2997,4.60019,2470.366,2021-10-25T02:43:49Z
2021-10-25T00:45:27Z,42.805,6.029,13.2997,4.60027,2470.404,2021-10-25T02:46:52Z
2021-10-25T00:48:31Z,42.805,6.029,13.3002,4.60029,2470.38,2021-10-25T02:49:55Z
2021-10-25T00:51:34Z,42.805,6.029,13.2990,4.60021,2470.366,2021-10-25T02:52:58Z
2021-10-25T00:54:37Z,42.805,6.029,13.2996,4.60031,2470.366,2021-10-25T02:56:01Z
2021-10-25T00:57:40Z,42.805,6.029,13.2994,4.60017,2470.343,2021-10-25T02:59:04Z
2021-10-25T01:00:43Z,42.805,6.029,13.2996,4.60024,2470.404,2021-10-25T03:02:07Z
2021-10-25T01:03:46Z,42.805,6.029,13.2995,4.60022,2470.343,2021-10-25T03:05:10Z
2021-10-25T01:06:49Z,42.805,6.029,13.2996,4.60021,2470.357,2021-10-25T03:08:14Z
2021-10-25T01:09:52Z,42.805,6.029,13.2999,4.60026,2470.366,2021-10-25T03:11:17Z
2021-10-25T01:12:56Z,42.805,6.029,13.2995,4.60023,2470.38,2021-10-25T03:14:20Z
2021-10-25T01:15:59Z,42.805,6.029,13.2994,4.60033,2470.343,2021-10-25T03:17:23Z
2021-10-25T01:19:02Z,42.805,6.029,13.2996,4.60026,2470.343,2021-10-25T03:20:26Z
2021-10-25T01:22:05Z,42.805,6.029,13.2996,4.60034,2470.343,2021-10-25T03:23:29Z
2021-10-25T01:25:08Z,42.805,6.029,13.2996,4.60026,2470.343,2021-10-25T03:26:32Z
2021-10-25T01:28:11Z,42.805,6.029,13.2993,4.60022,2470.343,2021-10-25T03:29:35Z
2021-10-25T01:31:14Z,42.805,6.029,13.3000,4.60039,2470.366,2021-10-25T03:32:39Z
2021-10-25T01:34:17Z,42.805,6.029,13.2997,4.60021,2470.357,2021-10-25T03:35:42Z
2021-10-25T01:37:21Z,42.805,6.029,13.2996,4.60038,2470.32,2021-10-25T03:38:45Z
2021-10-25T01:40:24Z,42.805,6.029,13.2999,4.60033,2470.334,2021-10-25T03:41:48Z
2021-10-25T01:43:27Z,42.805,6.029,13.3000,4.60030,2470.343,2021-10-25T03:44:51Z
2021-10-25T01:46:30Z,42.805,6.029,13.3000,4.60028,2470.32,2021-10-25T03:47:54Z
2021-10-25T01:49:33Z,42.805,6.029,13.2997,4.60026,2470.343,2021-10-25T03:50:57Z
2021-10-25T01:52:36Z,42.805,6.029,13.2999,4.60023,2470.32,2021-10-25T03:54:00Z
2021-10-25T01:55:39Z,42.805,6.029,13.2998,4.60021,2470.357,2021-10-25T03:57:03Z
2021-10-25T01:58:42Z,42.805,6.029,13.2993,4.60026,2470.38,2021-10-25T04:00:07Z
2021-10-25T02:01:45Z,42.805,6.029,13.2998,4.60026,2470.366,2021-10-25T04:03:10Z
2021-10-25T02:04:49Z,42.805,6.029,13.2999,4.60024,2470.334,2021-10-25T04:06:13Z
2021-10-25T02:07:52Z,42.805,6.029,13.2998,4.60023,2470.366,2021-10-25T04:09:16Z
2021-10-25T02:10:55Z,42.805,6.029,13.2998,4.60031,2470.357,2021-10-25T04:12:19Z
2021-10-25T02:13:58Z,42.805,6.029,13.2996,4.60023,2470.334,2021-10-25T04:15:22Z
2021-10-25T02:17:01Z,42.805,6.029,13.2998,4.60033,2470.38,2021-10-25T04:18:25Z
2021-10-25T02:20:04Z,42.805,6.029,13.2998,4.60038,2470.334,2021-10-25T04:21:28Z
2021-10-25T02:23:07Z,42.805,6.029,13.2996,4.60032,2470.357,2021-10-25T04:24:32Z
2021-10-25T02:26:10Z,42.805,6.029,13.2998,4.60037,2470.32,2021-10-25T04:27:35Z
2021-10-25T02:29:14Z,42.805,6.029,13.2999,4.60026,2470.357,2021-10-25T04:30:38Z
2021-10-25T02:32:17Z,42.805,6.029,13.2995,4.60020,2470.334,2021-10-25T04:33:41Z
2021-10-25T02:35:20Z,42.805,6.029,13.3002,4.60036,2470.343,2021-10-25T04:36:44Z
2021-10-25T02:38:23Z,42.805,6.029,13.2998,4.60025,2470.334,2021-10-25T04:39:47Z
2021-10-25T02:41:26Z,42.805,6.029,13.2994,4.60024,2470.343,2021-10-25T04:42:50Z
2021-10-25T02:44:29Z,42.805,6.029,13.3004,4.60027,2470.357,2021-10-25T04:45:53Z
2021-10-25T02:47:32Z,42.805,6.029,13.2996,4.60022,2470.38,2021-10-25T04:48:57Z
2021-10-25T02:50:35Z,42.805,6.029,13.3000,4.60026,2470.297,2021-10-25T04:52:00Z
2021-10-25T02:53:39Z,42.805,6.029,13.3004,4.60035,2470.366,2021-10-25T04:55:03Z
2021-10-25T02:56:42Z,42.805,6.029,13.2998,4.60027,2470.32,2021-10-25T04:58:06Z
2021-10-25T02:59:45Z,42.805,6.029,13.2996,4.60024,2470.297,2021-10-25T05:01:09Z
2021-10-25T03:02:48Z,42.805,6.029,13.3007,4.60044,2470.357,2021-10-25T05:04:12Z
2021-10-25T03:05:51Z,42.805,6.029,13.3004,4.60035,2470.343,2021-10-25T05:07:15Z
2021-10-25T03:08:54Z,42.805,6.029,13.3001,4.60031,2470.343,2021-10-25T05:10:18Z
2021-10-25T03:11:57Z,42.805,6.029,13.3000,4.60031,2470.357,2021-10-25T05:13:22Z
2021-10-25T03:15:00Z,42.805,6.029,13.2998,4.60029,2470.357,2021-10-25T05:16:25Z
2021-10-25T03:18:04Z,42.805,6.029,13.3002,4.60032,2470.357,2021-10-25T05:19:28Z
2021-10-25T03:21:07Z,42.805,6.029,13.3003,4.60041,2470.357,2021-10-25T05:22:31Z
2021-10-25T03:24:10Z,42.805,6.029,13.3002,4.60033,2470.357,2021-10-25T05:25:34Z
2021-10-25T03:27:13Z,42.805,6.029,13.2999,4.60019,2470.343,2021-10-25T05:28:37Z
2021-10-25T03:30:16Z,42.805,6.029,13.3002,4.60029,2470.343,2021-10-25T05:31:40Z
2021-10-25T03:33:19Z,42.805,6.029,13.3000,4.60019,2470.357,2021-10-25T05:34:43Z
2021-10-25T03:36:22Z,42.805,6.029,13.3002,4.60039,2470.357,2021-10-25T05:37:47Z
2021-10-25T03:39:25Z,42.805,6.029,13.3004,4.60033,2470.38,2021-10-25T05:40:50Z
2021-10-25T03:42:29Z,42.805,6.029,13.2995,4.60027,2470.357,2021-10-25T05:43:53Z
2021-10-25T03:45:32Z,42.805,6.029,13.2999,4.60032,2470.357,2021-10-25T05:46:56Z
2021-10-25T03:48:35Z,42.805,6.029,13.3004,4.60036,2470.32,2021-10-25T05:49:59Z
2021-10-25T03:51:38Z,42.805,6.029,13.2997,4.60029,2470.343,2021-10-25T05:53:02Z
2021-10-25T03:54:41Z,42.805,6.029,13.3001,4.60041,2470.32,2021-10-25T05:56:05Z
2021-10-25T03:57:44Z,42.805,6.029,13.2997,4.60021,2470.343,2021-10-25T05:59:08Z
2021-10-25T04:00:47Z,42.805,6.029,13.2996,4.60025,2470.343,2021-10-25T06:02:12Z
2021-10-25T04:03:50Z,42.805,6.029,13.2996,4.60033,2470.357,2021-10-25T06:05:15Z
2021-10-25T04:06:53Z,42.805,6.029,13.2994,4.60021,2470.357,2021-10-25T06:08:18Z
2021-10-25T04:09:57Z,42.805,6.029,13.2996,4.60030,2470.343,2021-10-25T06:11:21Z
2021-10-25T04:13:00Z,42.805,6.029,13.3003,4.60026,2470.343,2021-10-25T06:14:24Z
2021-10-25T04:16:03Z,42.805,6.029,13.3003,4.60027,2470.357,2021-10-25T06:17:27Z
2021-10-25T04:19:06Z,42.805,6.029,13.3001,4.60031,2470.357,2021-10-25T06:20:30Z
2021-10-25T04:22:09Z,42.805,6.029,13.3004,4.60033,2470.32,2021-10-25T06:23:33Z
2021-10-25T04:25:12Z,42.805,6.029,13.3004,4.60020,2470.38,2021-10-25T06:26:37Z
2021-10-25T04:28:15Z,42.805,6.029,13.2998,4.60022,2470.366,2021-10-25T06:29:40Z
2021-10-25T04:31:18Z,42.805,6.029,13.2998,4.60032,2470.334,2021-10-25T06:32:43Z
2021-10-25T04:34:22Z,42.805,6.029,13.2998,4.60031,2470.366,2021-10-25T06:35:46Z
2021-10-25T04:37:25Z,42.805,6.029,13.3006,4.60034,2470.357,2021-10-25T06:38:49Z
2021-10-25T04:40:28Z,42.805,6.029,13.2998,4.60027,2470.343,2021-10-25T06:41:52Z
2021-10-25T04:43:31Z,42.805,6.029,13.2997,4.60021,2470.334,2021-10-25T06:44:55Z
2021-10-25T04:46:34Z,42.805,6.029,13.2998,4.60031,2470.366,2021-10-25T06:47:58Z
2021-10-25T04:49:37Z,42.805,6.029,13.2996,4.60025,2470.357,2021-10-25T06:51:02Z
2021-10-25T04:52:40Z,42.805,6.029,13.3000,4.60025,2470.334,2021-10-25T06:54:05Z
2021-10-25T04:55:43Z,42.805,6.029,13.3004,4.60037,2470.32,2021-10-25T06:57:08Z
2021-10-25T04:58:47Z,42.805,6.029,13.3003,4.60031,2470.357,2021-10-25T07:00:11Z
2021-10-25T05:01:50Z,42.805,6.029,13.2997,4.60026,2470.357,2021-10-25T07:03:14Z
2021-10-25T05:04:53Z,42.805,6.029,13.3006,4.60031,2470.357,2021-10-25T07:06:17Z
2021-10-25T05:07:56Z,42.805,6.029,13.3000,4.60031,2470.343,2021-10-25T07:09:20Z
2021-10-25T05:10:59Z,42.805,6.029,13.2994,4.60026,2470.334,2021-10-25T07:12:23Z
2021-10-25T05:14:02Z,42.805,6.029,13.3000,4.60029,2470.357,2021-10-25T07:15:26Z
2021-10-25T05:17:05Z,42.805,6.029,13.3002,4.60026,2470.357,2021-10-25T07:18:30Z
2021-10-25T05:20:08Z,42.805,6.029,13.3003,4.60027,2470.32,2021-10-25T07:21:33Z
2021-10-25T05:23:12Z,42.805,6.029,13.3000,4.60032,2470.366,2021-10-25T07:24:36Z
2021-10-25T05:26:15Z,42.805,6.029,13.2998,4.60027,2470.343,2021-10-25T07:27:39Z
2021-10-25T05:29:18Z,42.805,6.029,13.3003,4.60031,2470.366,2021-10-25T07:30:42Z
2021-10-25T05:32:21Z,42.805,6.029,13.3001,4.60034,2470.366,2021-10-25T07:33:45Z
2021-10-25T05:35:24Z,42.805,6.029,13.2998,4.60039,2470.39,2021-10-25T07:36:48Z
2021-10-25T05:38:27Z,42.805,6.029,13.3003,4.60031,2470.366,2021-10-25T07:39:52Z
2021-10-25T05:41:30Z,42.805,6.029,13.2999,4.60025,2470.39,2021-10-25T07:42:55Z
2021-10-25T05:44:33Z,42.805,6.029,13.3004,4.60036,2470.38,2021-10-25T07:45:58Z
2021-10-25T05:47:37Z,42.805,6.029,13.3007,4.60033,2470.366,2021-10-25T07:49:01Z
2021-10-25T05:50:40Z,42.805,6.029,13.3000,4.60025,2470.366,2021-10-25T07:52:04Z
2021-10-25T05:53:43Z,42.805,6.029,13.3003,4.60038,2470.366,2021-10-25T07:55:07Z
2021-10-25T05:56:46Z,42.805,6.029,13.3000,4.60031,2470.39,2021-10-25T07:58:10Z
2021-10-25T05:59:49Z,42.805,6.029,13.3006,4.60028,2470.38,2021-10-25T08:01:13Z
2021-10-25T06:02:52Z,42.805,6.029,13.3003,4.60032,2470.357,2021-10-25T08:04:16Z
2021-10-25T06:05:55Z,42.805,6.029,13.3006,4.60044,2470.366,2021-10-25T08:07:20Z
2021-10-25T06:08:58Z,42.805,6.029,13.3002,4.60036,2470.404,2021-10-25T08:10:23Z
2021-10-25T06:12:02Z,42.805,6.029,13.3004,4.60033,2470.413,2021-10-25T08:13:26Z
2021-10-25T06:15:05Z,42.805,6.029,13.3004,4.60031,2470.39,2021-10-25T08:16:29Z
2021-10-25T06:18:08Z,42.805,6.029,13.3006,4.60032,2470.404,2021-10-25T08:19:32Z
2021-10-25T06:21:11Z,42.805,6.029,13.3000,4.60025,2470.404,2021-10-25T08:22:35Z
2021-10-25T06:24:14Z,42.805,6.029,13.3005,4.60025,2470.413,2021-10-25T08:25:38Z
2021-10-25T06:27:17Z,42.805,6.029,13.2998,4.60024,2470.427,2021-10-25T08:28:42Z
2021-10-25T06:30:20Z,42.805,6.029,13.3001,4.60023,2470.427,2021-10-25T08:31:45Z
2021-10-25T06:33:23Z,42.805,6.029,13.3000,4.60033,2470.413,2021-10-25T08:34:48Z
2021-10-25T06:36:27Z,42.805,6.029,13.3001,4.60041,2470.39,2021-10-25T08:37:51Z
2021-10-25T06:39:30Z,42.805,6.029,13.3005,4.60030,2470.39,2021-10-25T08:40:54Z
2021-10-25T06:42:33Z,42.805,6.029,13.3005,4.60029,2470.437,2021-10-25T08:43:57Z
2021-10-25T06:45:36Z,42.805,6.029,13.3000,4.60033,2470.45,2021-10-25T08:47:00Z
2021-10-25T06:48:39Z,42.805,6.029,13.3003,4.60027,2470.45,2021-10-25T08:50:03Z
2021-10-25T06:51:42Z,42.805,6.029,13.2999,4.60033,2470.437,2021-10-25T08:53:06Z
2021-10-25T06:54:45Z,42.805,6.029,13.2998,4.60029,2470.437,2021-10-25T08:56:10Z
2021-10-25T06:57:48Z,42.805,6.029,13.3004,4.60031,2470.46,2021-10-25T08:59:13Z
2021-10-25T07:00:52Z,42.805,6.029,13.3006,4.60031,2470.437,2021-10-25T09:02:16Z
2021-10-25T07:03:55Z,42.805,6.029,13.3002,4.60035,2470.45,2021-10-25T09:05:19Z
2021-10-25T07:06:58Z,42.805,6.029,13.3005,4.60038,2470.45,2021-10-25T09:08:22Z
2021-10-25T07:10:01Z,42.805,6.029,13.2998,4.60039,2470.437,2021-10-25T09:11:25Z
2021-10-25T07:13:04Z,42.805,6.029,13.3004,4.60029,2470.46,2021-10-25T09:14:28Z
2021-10-25T07:16:07Z,42.805,6.029,13.3003,4.60029,2470.45,2021-10-25T09:17:31Z
2021-10-25T07:19:10Z,42.805,6.029,13.2998,4.60033,2470.437,2021-10-25T09:20:35Z
2021-10-25T07:22:13Z,42.805,6.029,13.3001,4.60031,2470.474,2021-10-25T09:23:38Z
2021-10-25T07:25:17Z,42.805,6.029,13.3002,4.60036,2470.446,2021-10-25T09:26:41Z
2021-10-25T07:28:20Z,42.805,6.029,13.2996,4.60031,2470.483,2021-10-25T09:29:44Z
2021-10-25T07:31:23Z,42.805,6.029,13.3000,4.60037,2470.507,2021-10-25T09:32:47Z
2021-10-25T07:34:26Z,42.805,6.029,13.3002,4.60030,2470.497,2021-10-25T09:35:50Z
2021-10-25T07:37:29Z,42.805,6.029,13.2999,4.60031,2470.46,2021-10-25T09:38:53Z
2021-10-25T07:40:32Z,42.805,6.029,13.3000,4.60040,2470.46,2021-10-25T09:41:56Z
2021-10-25T07:43:35Z,42.805,6.029,13.3006,4.60029,2470.46,2021-10-25T09:45:00Z
2021-10-25T07:46:38Z,42.805,6.029,13.3003,4.60031,2470.46,2021-10-25T09:48:03Z
2021-10-25T07:49:42Z,42.805,6.029,13.3001,4.60031,2470.483,2021-10-25T09:51:06Z
2021-10-25T07:52:45Z,42.805,6.029,13.3004,4.60031,2470.483,2021-10-25T09:54:09Z
2021-10-25T07:55:48Z,42.805,6.029,13.3004,4.60035,2470.483,2021-10-25T09:57:12Z
2021-10-25T07:58:51Z,42.805,6.029,13.3000,4.60029,2470.497,2021-10-25T10:00:15Z
2021-10-25T08:01:54Z,42.805,6.029,13.3000,4.60034,2470.507,2021-10-25T10:03:18Z
2021-10-25T08:04:57Z,42.805,6.029,13.2998,4.60025,2470.507,2021-10-25T10:06:21Z
2021-10-25T08:08:00Z,42.805,6.029,13.3000,4.60034,2470.483,2021-10-25T10:09:25Z
2021-10-25T08:11:03Z,42.805,6.029,13.3000,4.60027,2470.507,2021-10-25T10:12:28Z
2021-10-25T08:14:07Z,42.805,6.029,13.3002,4.60028,2470.507,2021-10-25T10:15:31Z
2021-10-25T08:17:10Z,42.805,6.029,13.3003,4.60026,2470.483,2021-10-25T10:18:34Z
2021-10-25T08:20:13Z,42.805,6.029,13.3004,4.60032,2470.52,2021-10-25T10:21:37Z
2021-10-25T08:23:16Z,42.805,6.029,13.3004,4.60039,2470.507,2021-10-25T10:24:40Z
2021-10-25T08:26:19Z,42.805,6.029,13.3000,4.60025,2470.507,2021-10-25T10:27:43Z
2021-10-25T08:29:22Z,42.805,6.029,13.3000,4.60031,2470.52,2021-10-25T10:30:46Z
2021-10-25T08:32:25Z,42.805,6.029,13.3001,4.60031,2470.507,2021-10-25T10:33:50Z
2021-10-25T08:35:28Z,42.805,6.029,13.3003,4.60023,2470.52,2021-10-25T10:36:53Z
2021-10-25T08:38:32Z,42.805,6.029,13.3001,4.60021,2470.52,2021-10-25T10:39:56Z
2021-10-25T08:41:35Z,42.805,6.029,13.3002,4.60024,2470.53,2021-10-25T10:42:59Z
2021-10-25T08:44:38Z,42.805,6.029,13.3003,4.60024,2470.46,2021-10-25T10:46:02Z
2021-10-25T08:47:41Z,42.805,6.029,13.3000,4.60023,2470.53,2021-10-25T10:49:05Z
2021-10-25T08:50:44Z,42.805,6.029,13.3000,4.60033,2470.567,2021-10-25T10:52:08Z
2021-10-25T08:53:47Z,42.805,6.029,13.2997,4.60024,2470.474,2021-10-25T10:55:12Z
2021-10-25T08:56:50Z,42.805,6.029,13.3000,4.60029,2470.52,2021-10-25T10:58:15Z
2021-10-25T08:59:53Z,42.805,6.029,13.2997,4.60025,2470.53,2021-10-25T11:01:18Z
2021-10-25T09:02:57Z,42.805,6.029,13.3000,4.60025,2470.507,2021-10-25T11:04:21Z
2021-10-25T09:06:00Z,42.805,6.029,13.3000,4.60029,2470.52,2021-10-25T11:07:24Z
2021-10-25T09:09:03Z,42.805,6.029,13.3004,4.60025,2470.567,2021-10-25T11:10:27Z
2021-10-25T09:12:06Z,42.805,6.029,13.3002,4.60029,2470.53,2021-10-25T11:13:30Z
2021-10-25T09:15:09Z,42.805,6.029,13.3004,4.60024,2470.483,2021-10-25T11:16:33Z
2021-10-25T09:18:12Z,42.805,6.029,13.3004,4.60029,2470.52,2021-10-25T11:19:37Z
2021-10-25T09:21:15Z,42.805,6.029,13.3000,4.60022,2470.52,2021-10-25T11:22:40Z
2021-10-25T09:24:18Z,42.805,6.029,13.2998,4.60021,2470.53,2021-10-25T11:25:43Z
2021-10-25T09:27:22Z,42.805,6.029,13.3000,4.60025,2470.53,2021-10-25T11:28:46Z
2021-10-25T09:30:25Z,42.805,6.029,13.2998,4.60023,2470.52,2021-10-25T11:31:49Z
2021-10-25T09:33:28Z,42.805,6.029,13.3004,4.60029,2470.53,2021-10-25T11:34:52Z
2021-10-25T09:36:31Z,42.805,6.029,13.3002,4.60025,2470.544,2021-10-25T11:37:55Z
2021-10-25T09:39:34Z,42.805,6.029,13.3000,4.60022,2470.53,2021-10-25T11:40:58Z
2021-10-25T09:42:37Z,42.805,6.029,13.3003,4.60026,2470.507,2021-10-25T11:44:02Z
2021-10-25T09:45:40Z,42.805,6.029,13.3001,4.60022,2470.553,2021-10-25T11:47:05Z
2021-10-25T09:48:44Z,42.805,6.029,13.2996,4.60019,2470.507,2021-10-25T11:50:08Z
2021-10-25T09:51:47Z,42.805,6.029,13.3000,4.60031,2470.544,2021-10-25T11:53:11Z
2021-10-25T09:54:50Z,42.805,6.029,13.3001,4.60025,2470.52,2021-10-25T11:56:14Z
2021-10-25T09:57:53Z,42.805,6.029,13.3003,4.60026,2470.507,2021-10-25T11:59:17Z
2021-10-25T10:00:56Z,42.805,6.029,13.3000,4.60026,2470.507,2021-10-25T12:02:20Z
2021-10-25T10:03:59Z,42.805,6.029,13.2996,4.60025,2470.52,2021-10-25T12:05:23Z
2021-10-25T10:07:02Z,42.805,6.029,13.2999,4.60033,2470.544,2021-10-25T12:08:27Z
2021-10-25T10:10:05Z,42.805,6.029,13.3000,4.60035,2470.53,2021-10-25T12:11:30Z
2021-10-25T10:13:09Z,42.805,6.029,13.2999,4.60028,2470.567,2021-10-25T12:14:33Z
2021-10-25T10:16:12Z,42.805,6.029,13.3000,4.60022,2470.53,2021-10-25T12:17:36Z
2021-10-25T10:19:15Z,42.805,6.029,13.3000,4.60025,2470.544,2021-10-25T12:20:39Z
2021-10-25T10:22:18Z,42.805,6.029,13.3004,4.60032,2470.53,2021-10-25T12:23:42Z
2021-10-25T10:25:21Z,42.805,6.029,13.3002,4.60027,2470.53,2021-10-25T12:26:45Z
2021-10-25T10:28:24Z,42.805,6.029,13.3000,4.60025,2470.53,2021-10-25T12:29:48Z
2021-10-25T10:31:27Z,42.805,6.029,13.3000,4.60033,2470.507,2021-10-25T12:32:52Z
2021-10-25T10:34:30Z,42.805,6.029,13.3003,4.60030,2470.507,2021-10-25T12:35:55Z
2021-10-25T10:37:34Z,42.805,6.029,13.3001,4.60026,2470.553,2021-10-25T12:38:58Z
2021-10-25T10:40:37Z,42.805,6.029,13.2998,4.60029,2470.53,2021-10-25T12:42:01Z
2021-10-25T10:43:40Z,42.805,6.029,13.3000,4.60023,2470.53,2021-10-25T12:45:04Z
2021-10-25T10:46:43Z,42.805,6.029,13.3000,4.60027,2470.52,2021-10-25T12:48:07Z
2021-10-25T10:49:46Z,42.805,6.029,13.2996,4.60024,2470.52,2021-10-25T12:51:10Z
2021-10-25T10:52:49Z,42.805,6.029,13.2993,4.60021,2470.53,2021-10-25T12:54:14Z
2021-10-25T10:55:52Z,42.805,6.029,13.2998,4.60025,2470.507,2021-10-25T12:57:17Z
2021-10-25T10:58:55Z,42.805,6.029,13.3001,4.60036,2470.52,2021-10-25T13:00:20Z
2021-10-25T11:01:59Z,42.805,6.029,13.3004,4.60028,2470.497,2021-10-25T13:03:23Z
2021-10-25T11:05:02Z,42.805,6.029,13.2996,4.60025,2470.507,2021-10-25T13:06:26Z
2021-10-25T11:08:05Z,42.805,6.029,13.3001,4.60024,2470.544,2021-10-25T13:09:29Z
2021-10-25T11:11:08Z,42.805,6.029,13.3000,4.60029,2470.507,2021-10-25T13:12:32Z
2021-10-25T11:14:11Z,42.805,6.029,13.2998,4.60023,2470.497,2021-10-25T13:15:35Z
2021-10-25T11:17:14Z,42.805,6.029,13.2997,4.60021,2470.483,2021-10-25T13:18:39Z
2021-10-25T11:20:17Z,42.805,6.029,13.2997,4.60022,2470.497,2021-10-25T13:21:42Z
2021-10-25T11:23:20Z,42.805,6.029,13.2998,4.60024,2470.507,2021-10-25T13:24:45Z
2021-10-25T11:26:24Z,42.805,6.029,13.3001,4.60039,2470.497,2021-10-25T13:27:48Z
2021-10-25T11:29:27Z,42.805,6.029,13.3000,4.60026,2470.544,2021-10-25T13:30:51Z
2021-10-25T11:32:30Z,42.805,6.029,13.3003,4.60036,2470.497,2021-10-25T13:33:54Z
2021-10-25T11:35:33Z,42.805,6.029,13.2999,4.60033,2470.497,2021-10-25T13:36:57Z
2021-10-25T11:38:36Z,42.805,6.029,13.3006,4.60047,2470.483,2021-10-25T13:40:00Z
2021-10-25T11:41:39Z,42.805,6.029,13.2999,4.60028,2470.483,2021-10-25T13:43:04Z
2021-10-25T11:44:42Z,42.805,6.029,13.2998,4.60022,2470.483,2021-10-25T13:46:07Z
2021-10-25T11:47:45Z,42.805,6.029,13.2998,4.60023,2470.507,2021-10-25T13:49:10Z
2021-10-25T11:50:49Z,42.805,6.029,13.2998,4.60029,2470.483,2021-10-25T13:52:13Z
2021-10-25T11:53:52Z,42.805,6.029,13.3000,4.60033,2470.46,2021-10-25T13:55:16Z
2021-10-25T11:56:55Z,42.805,6.029,13.3001,4.60028,2470.483,2021-10-25T13:58:19Z
2021-10-25T11:59:58Z,42.805,6.029,13.3000,4.60033,2470.46,2021-10-25T14:01:22Z
2021-10-25T12:03:01Z,42.805,6.029,13.2993,4.60031,2470.46,2021-10-25T14:04:25Z
2021-10-25T12:06:04Z,42.805,6.029,13.3004,4.60023,2470.483,2021-10-25T14:07:29Z
2021-10-25T12:09:07Z,42.805,6.029,13.3004,4.60044,2470.497,2021-10-25T14:10:32Z
2021-10-25T12:12:10Z,42.805,6.029,13.3003,4.60031,2470.483,2021-10-25T14:13:35Z
2021-10-25T12:15:14Z,42.805,6.029,13.3001,4.60049,2470.474,2021-10-25T14:16:38Z
2021-10-25T12:18:17Z,42.805,6.029,13.3000,4.60026,2470.46,2021-10-25T14:19:41Z
2021-10-25T12:21:20Z,42.805,6.029,13.2996,4.60021,2470.46,2021-10-25T14:22:44Z
2021-10-25T12:24:23Z,42.805,6.029,13.3001,4.60029,2470.437,2021-10-25T14:25:47Z
2021-10-25T12:27:26Z,42.805,6.029,13.3000,4.60021,2470.474,2021-10-25T14:28:50Z
2021-10-25T12:30:29Z,42.805,6.029,13.2996,4.60040,2470.483,2021-10-25T14:31:54Z
2021-10-25T12:33:32Z,42.805,6.029,13.2998,4.60026,2470.46,2021-10-25T14:34:57Z
2021-10-25T12:36:36Z,42.805,6.029,13.3004,4.60031,2470.474,2021-10-25T14:38:00Z
2021-10-25T12:39:39Z,42.805,6.029,13.3002,4.60033,2470.437,2021-10-25T14:41:03Z
2021-10-25T12:42:42Z,42.805,6.029,13.2999,4.60025,2470.45,2021-10-25T14:44:06Z
2021-10-25T12:45:45Z,42.805,6.029,13.2998,4.60019,2470.474,2021-10-25T14:47:09Z
2021-10-25T12:48:48Z,42.805,6.029,13.2996,4.60021,2470.474,2021-10-25T14:50:12Z
2021-10-25T12:51:51Z,42.805,6.029,13.2993,4.60021,2470.483,2021-10-25T14:53:15Z
2021-10-25T12:54:54Z,42.805,6.029,13.3002,4.60029,2470.437,2021-10-25T14:56:19Z
2021-10-25T12:57:57Z,42.805,6.029,13.3001,4.60028,2470.474,2021-10-25T14:59:22Z
2021-10-25T13:01:01Z,42.805,6.029,13.2998,4.60023,2470.437,2021-10-25T15:02:25Z
2021-10-25T13:04:04Z,42.805,6.029,13.2998,4.60022,2470.45,2021-10-25T15:05:28Z
2021-10-25T13:07:07Z,42.805,6.029,13.2998,4.60025,2470.45,2021-10-25T15:08:31Z
2021-10-25T13:10:10Z,42.805,6.029,13.3004,4.60025,2470.437,2021-10-25T15:11:34Z
2021-10-25T13:13:13Z,42.805,6.029,13.2998,4.60027,2470.437,2021-10-25T15:14:37Z
2021-10-25T13:16:16Z,42.805,6.029,13.2999,4.60027,2470.437,2021-10-25T15:17:40Z
2021-10-25T13:19:19Z,42.805,6.029,13.2997,4.60027,2470.474,2021-10-25T15:20:44Z
2021-10-25T13:22:22Z,42.805,6.029,13.2999,4.60021,2470.45,2021-10-25T15:23:47Z
2021-10-25T13:25:26Z,42.805,6.029,13.2995,4.60026,2470.437,2021-10-25T15:26:50Z
2021-10-25T13:28:29Z,42.805,6.029,13.2998,4.60020,2470.45,2021-10-25T15:29:53Z
2021-10-25T13:31:32Z,42.805,6.029,13.3000,4.60023,2470.45,2021-10-25T15:32:56Z
2021-10-25T13:34:35Z,42.805,6.029,13.3006,4.60026,2470.437,2021-10-25T15:35:59Z
2021-10-25T13:37:38Z,42.805,6.029,13.2997,4.60019,2470.45,2021-10-25T15:39:02Z
2021-10-25T13:40:41Z,42.805,6.029,13.2996,4.60018,2470.474,2021-10-25T15:42:06Z
2021-10-25T13:43:44Z,42.805,6.029,13.2998,4.60019,2470.46,2021-10-25T15:45:09Z
2021-10-25T13:46:47Z,42.805,6.029,13.3000,4.60019,2470.437,2021-10-25T15:48:12Z
2021-10-25T13:49:51Z,42.805,6.029,13.3000,4.60026,2470.46,2021-10-25T15:51:15Z
2021-10-25T13:52:54Z,42.805,6.029,13.2995,4.60022,2470.437,2021-10-25T15:54:18Z
2021-10-25T13:55:57Z,42.805,6.029,13.2995,4.60021,2470.474,2021-10-25T15:57:21Z
2021-10-25T13:59:00Z,42.805,6.029,13.2995,4.60023,2470.45,2021-10-25T16:00:24Z
2021-10-25T14:02:03Z,42.805,6.029,13.2996,4.60023,2470.437,2021-10-25T16:03:27Z
2021-10-25T14:05:06Z,42.805,6.029,13.2998,4.60020,2470.45,2021-10-25T16:06:31Z
2021-10-25T14:08:09Z,42.805,6.029,13.2999,4.60024,2470.427,2021-10-25T16:09:34Z
2021-10-25T14:11:13Z,42.805,6.029,13.2997,4.60021,2470.427,2021-10-25T16:12:37Z
2021-10-25T14:14:16Z,42.805,6.029,13.2991,4.60026,2470.474,2021-10-25T16:15:40Z
2021-10-25T14:17:19Z,42.805,6.029,13.3002,4.60021,2470.437,2021-10-25T16:18:43Z
2021-10-25T14:20:22Z,42.805,6.029,13.2996,4.60019,2470.46,2021-10-25T16:21:46Z
2021-10-25T14:23:25Z,42.805,6.029,13.2997,4.60019,2470.437,2021-10-25T16:24:49Z
2021-10-25T14:26:28Z,42.805,6.029,13.2996,4.60021,2470.45,2021-10-25T16:27:52Z
2021-10-25T14:29:31Z,42.805,6.029,13.2994,4.60021,2470.46,2021-10-25T16:30:56Z
2021-10-25T14:32:34Z,42.805,6.029,13.2995,4.60022,2470.427,2021-10-25T16:33:59Z
2021-10-25T14:35:38Z,42.805,6.029,13.2996,4.60026,2470.437,2021-10-25T16:37:02Z
2021-10-25T14:38:41Z,42.805,6.029,13.2993,4.60020,2470.483,2021-10-25T16:40:05Z
2021-10-25T14:41:44Z,42.805,6.029,13.2998,4.60021,2470.497,2021-10-25T16:43:08Z
2021-10-25T14:44:47Z,42.805,6.029,13.3000,4.60021,2470.413,2021-10-25T16:46:11Z
2021-10-25T14:47:50Z,42.805,6.029,13.2998,4.60021,2470.404,2021-10-25T16:49:14Z
2021-10-25T14:50:53Z,42.805,6.029,13.2995,4.60017,2470.413,2021-10-25T16:52:17Z
2021-10-25T14:53:56Z,42.805,6.029,13.2994,4.60019,2470.413,2021-10-25T16:55:21Z
2021-10-25T14:56:59Z,42.805,6.029,13.2995,4.60019,2470.39,2021-10-25T16:58:24Z
2021-10-25T15:00:03Z,42.805,6.029,13.3000,4.60020,2470.45,2021-10-25T17:01:27Z
2021-10-25T15:03:06Z,42.805,6.029,13.2996,4.60021,2470.39,2021-10-25T17:04:30Z